| time (UTC) | temp F | wind direction | speed MPH | gust MPH | rain 1hr in | rain 24hr in | rain mn in | humidity % | barometer mb |
| 20260507210323 | 66 | 297 | 5.0 | 10.0 | 0.00 | 0.19 | 0.19 | 40 | 1008.1 |
| 20260507205832 | 66 | 280 | 7.0 | 11.0 | 0.00 | 0.19 | 0.19 | 39 | 1008.1 |
| 20260507205322 | 66 | 311 | 5.0 | 11.0 | 0.00 | 0.19 | 0.19 | 41 | 1007.8 |
| 20260507204832 | 66 | 313 | 2.0 | 10.0 | 0.00 | 0.19 | 0.19 | 42 | 1007.7 |
| 20260507204344 | 65 | 275 | 4.0 | 11.0 | 0.00 | 0.19 | 0.19 | 38 | 1007.7 |
| 20260507203834 | 65 | 280 | 3.0 | 9.0 | 0.00 | 0.19 | 0.19 | 40 | 1007.7 |
| 20260507203326 | 65 | 290 | 5.0 | 11.0 | 0.00 | 0.19 | 0.19 | 39 | 1007.8 |
| 20260507202817 | 65 | 360 | 7.0 | 11.0 | 0.00 | 0.19 | 0.19 | 39 | 1007.8 |
| 20260507202327 | 65 | 275 | 7.0 | 10.0 | 0.00 | 0.19 | 0.19 | 39 | 1007.9 |
| 20260507201818 | 65 | 313 | 5.0 | 9.0 | 0.00 | 0.19 | 0.19 | 41 | 1007.9 |
| 20260507201331 | 65 | 298 | 5.0 | 8.0 | 0.00 | 0.19 | 0.19 | 41 | 1007.9 |
| 20260507200842 | 65 | 326 | 6.0 | 11.0 | 0.00 | 0.19 | 0.19 | 40 | 1007.9 |
| 20260507200352 | 65 | 355 | 4.0 | 11.0 | 0.00 | 0.19 | 0.19 | 41 | 1007.9 |
| 20260507195822 | 65 | 331 | 6.0 | 14.0 | 0.00 | 0.19 | 0.19 | 41 | 1008.0 |
| 20260507195334 | 65 | 325 | 6.0 | 14.0 | 0.00 | 0.19 | 0.19 | 41 | 1008.1 |
| 20260507194824 | 65 | 334 | 3.0 | 10.0 | 0.00 | 0.19 | 0.19 | 42 | 1008.2 |
| 20260507194334 | 65 | 12 | 0.0 | 8.0 | 0.00 | 0.19 | 0.19 | 44 | 1008.2 |
| 20260507193826 | 65 | 329 | 3.0 | 6.0 | 0.00 | 0.19 | 0.19 | 43 | 1008.3 |
| 20260507193316 | 64 | 56 | 2.0 | 4.0 | 0.00 | 0.19 | 0.19 | 45 | 1008.3 |
| 20260507192828 | 64 | 296 | 0.0 | 7.0 | 0.00 | 0.19 | 0.19 | 46 | 1008.5 |
| 20260507192338 | 64 | 279 | 4.0 | 7.0 | 0.00 | 0.19 | 0.19 | 47 | 1008.5 |
| 20260507191828 | 64 | 305 | 1.0 | 6.0 | 0.00 | 0.19 | 0.19 | 46 | 1008.6 |
| 20260507191320 | 64 | 304 | 3.0 | 8.0 | 0.00 | 0.19 | 0.19 | 46 | 1008.9 |
| 20260507190827 | 64 | 322 | 3.0 | 11.0 | 0.00 | 0.19 | 0.19 | 43 | 1009.2 |
| 20260507190318 | 64 | 295 | 6.0 | 11.0 | 0.00 | 0.19 | 0.19 | 45 | 1009.0 |
| 20260507185827 | 65 | 347 | 4.0 | 9.0 | 0.00 | 0.19 | 0.19 | 46 | 1008.9 |
| 20260507185317 | 65 | 315 | 5.0 | 9.0 | 0.00 | 0.19 | 0.19 | 48 | 1008.9 |
| 20260507184826 | 64 | 261 | 7.0 | 15.0 | 0.00 | 0.19 | 0.19 | 48 | 1009.0 |
| 20260507184336 | 64 | 328 | 6.0 | 15.0 | 0.00 | 0.19 | 0.19 | 44 | 1009.0 |
| 20260507183842 | 64 | 258 | 6.0 | 10.0 | 0.00 | 0.19 | 0.19 | 46 | 1008.8 |
| 20260507183332 | 64 | 282 | 4.0 | 10.0 | 0.00 | 0.19 | 0.19 | 48 | 1008.9 |
| 20260507182823 | 63 | 24 | 2.0 | 10.0 | 0.00 | 0.19 | 0.19 | 49 | 1009.0 |
| 20260507182400 | 63 | 327 | 2.0 | 8.0 | 0.00 | 0.19 | 0.19 | 49 | 1009.1 |
| 20260507181849 | 63 | 272 | 3.0 | 10.0 | 0.00 | 0.19 | 0.19 | 49 | 1009.2 |
| 20260507181338 | 63 | 284 | 6.0 | 10.0 | 0.00 | 0.19 | 0.19 | 48 | 1009.5 |
| 20260507180827 | 63 | 294 | 6.0 | 11.0 | 0.00 | 0.19 | 0.19 | 50 | 1009.2 |
| 20260507180317 | 63 | 333 | 6.0 | 11.0 | 0.00 | 0.19 | 0.19 | 51 | 1009.4 |
| 20260507175827 | 63 | 355 | 3.0 | 8.0 | 0.00 | 0.19 | 0.19 | 54 | 1009.3 |
| 20260507175317 | 63 | 24 | 3.0 | 8.0 | 0.00 | 0.19 | 0.19 | 53 | 1009.5 |
| 20260507174827 | 62 | 253 | 3.0 | 9.0 | 0.00 | 0.19 | 0.19 | 51 | 1009.7 |
| 20260507174317 | 62 | 313 | 4.0 | 10.0 | 0.00 | 0.19 | 0.19 | 52 | 1009.8 |
| 20260507173827 | 62 | 276 | 6.0 | 9.0 | 0.00 | 0.19 | 0.19 | 55 | 1009.9 |
| 20260507173337 | 61 | 297 | 4.0 | 10.0 | 0.00 | 0.19 | 0.19 | 54 | 1009.8 |
| 20260507172826 | 61 | 327 | 1.0 | 6.0 | 0.00 | 0.19 | 0.19 | 55 | 1009.8 |
| 20260507172337 | 61 | 318 | 4.0 | 8.0 | 0.00 | 0.19 | 0.19 | 55 | 1009.9 |
| 20260507171841 | 61 | 326 | 4.0 | 9.0 | 0.00 | 0.19 | 0.19 | 58 | 1010.0 |
| 20260507171330 | 61 | 19 | 3.0 | 9.0 | 0.00 | 0.19 | 0.19 | 56 | 1010.2 |
| 20260507170817 | 61 | 323 | 4.0 | 6.0 | 0.00 | 0.19 | 0.19 | 58 | 1010.3 |
| 20260507170327 | 60 | 20 | 1.0 | 6.0 | 0.00 | 0.19 | 0.19 | 58 | 1010.3 |
| 20260507165838 | 60 | 319 | 2.0 | 11.0 | 0.00 | 0.19 | 0.19 | 59 | 1010.4 |
| 20260507165329 | 60 | 310 | 3.0 | 11.0 | 0.00 | 0.19 | 0.19 | 58 | 1010.4 |
| 20260507164819 | 60 | 355 | 4.0 | 6.0 | 0.00 | 0.19 | 0.19 | 59 | 1010.4 |
| 20260507164331 | 60 | 279 | 4.0 | 7.0 | 0.00 | 0.19 | 0.19 | 61 | 1010.6 |
| 20260507163822 | 60 | 263 | 3.0 | 7.0 | 0.00 | 0.19 | 0.19 | 59 | 1010.7 |
| 20260507163331 | 60 | 273 | 3.0 | 8.0 | 0.00 | 0.19 | 0.19 | 59 | 1010.9 |
| 20260507162841 | 60 | 299 | 4.0 | 10.0 | 0.00 | 0.19 | 0.19 | 58 | 1011.0 |
| 20260507162352 | 60 | 360 | 4.0 | 10.0 | 0.00 | 0.19 | 0.19 | 58 | 1010.8 |
| 20260507161821 | 60 | 329 | 3.0 | 7.0 | 0.00 | 0.19 | 0.19 | 61 | 1010.8 |